TimeCDT,TemperatureF,Dew PointF,Humidity,Sea Level PressureIn,VisibilityMPH,Wind Direction,Wind SpeedMPH,Gust SpeedMPH,PrecipitationIn,Events,Conditions,WindDirDegrees,DateUTC
12:52 AM,77.0,61.0,58,29.88,10.0,SSE,9.2,-,N/A,,Clear,160,2013-09-09 05:52:00
1:52 AM,80.1,61.0,52,29.88,10.0,South,11.5,-,N/A,,Clear,180,2013-09-09 06:52:00
2:52 AM,80.1,62.1,54,29.88,10.0,SSW,11.5,-,N/A,,Clear,210,2013-09-09 07:52:00
3:52 AM,77.0,62.1,60,29.89,10.0,SSW,8.1,-,N/A,,Clear,200,2013-09-09 08:52:00
4:52 AM,72.0,63.0,73,29.90,10.0,South,8.1,-,N/A,,Clear,190,2013-09-09 09:52:00
5:52 AM,71.1,63.0,75,29.91,10.0,South,8.1,-,N/A,,Clear,180,2013-09-09 10:52:00
6:52 AM,68.0,63.0,84,29.93,10.0,South,5.8,-,N/A,,Clear,180,2013-09-09 11:52:00
7:52 AM,71.1,64.0,78,29.94,10.0,South,4.6,-,N/A,,Partly Cloudy,180,2013-09-09 12:52:00
8:52 AM,77.0,64.9,66,29.95,10.0,South,8.1,-,N/A,,Clear,180,2013-09-09 13:52:00
9:52 AM,82.0,66.0,58,29.95,10.0,South,9.2,-,N/A,,Clear,180,2013-09-09 14:52:00
10:52 AM,86.0,64.9,49,29.96,10.0,South,11.5,-,N/A,,Clear,190,2013-09-09 15:52:00
11:52 AM,86.0,62.1,44,29.95,10.0,SSE,15.0,21.9,N/A,,Clear,160,2013-09-09 16:52:00
12:52 PM,89.1,60.1,38,29.94,10.0,South,10.4,19.6,N/A,,Partly Cloudy,170,2013-09-09 17:52:00
1:52 PM,91.9,57.9,32,29.92,10.0,SSE,12.7,24.2,N/A,,Partly Cloudy,150,2013-09-09 18:52:00
2:52 PM,93.9,57.9,30,29.89,10.0,South,15.0,21.9,N/A,,Scattered Clouds,190,2013-09-09 19:52:00
3:52 PM,96.1,55.9,26,29.87,10.0,South,16.1,25.3,N/A,,Scattered Clouds,180,2013-09-09 20:52:00
4:52 PM,95.0,57.9,29,29.86,10.0,SSE,11.5,-,N/A,,Scattered Clouds,160,2013-09-09 21:52:00
5:52 PM,93.9,57.0,29,29.85,10.0,SSE,11.5,-,N/A,,Scattered Clouds,150,2013-09-09 22:52:00
6:52 PM,93.0,55.9,29,29.85,10.0,SSE,18.4,-,N/A,,Partly Cloudy,160,2013-09-09 23:52:00
7:52 PM,87.1,57.0,36,29.86,10.0,SSE,11.5,-,N/A,,Partly Cloudy,160,2013-09-10 00:52:00
8:52 PM,86.0,60.1,41,29.87,10.0,SSE,11.5,-,N/A,,Partly Cloudy,150,2013-09-10 01:52:00
9:52 PM,82.0,60.1,47,29.89,10.0,SSE,11.5,-,N/A,,Partly Cloudy,160,2013-09-10 02:52:00
10:52 PM,81.0,61.0,50,29.90,10.0,SSE,8.1,-,N/A,,Partly Cloudy,150,2013-09-10 03:52:00
11:52 PM,80.1,61.0,52,29.91,10.0,SSE,11.5,-,N/A,,Clear,150,2013-09-10 04:52:00